HPR7VG EGSS-LFPG

Flight info

Callsign HPR7VG
Flight time N/A
Altitude 25000
Route DET M604 LYD UM189 WAFFU UM605 BIBAX
Aircraft A321/M-SDE3FGHIRWY/LB1

Departure

Time 2026-05-04 20:47
Airport London Stansted Airport (EGSS)

Arrival

Time N/A
Airport Charles de Gaulle International Airport (LFPG)
Time Latitude Longitude Altitude Speed Heading
2026-05-04 20:30 51.88871 0.25385 334 ft 0 kts 42°
2026-05-04 20:34 51.88862 0.25372 334 ft 2 kts 42°
2026-05-04 20:34 51.88851 0.25355 334 ft 2 kts 43°
2026-05-04 20:34 51.88840 0.25339 334 ft 2 kts 42°
2026-05-04 20:35 51.88828 0.25322 333 ft 2 kts 24°
2026-05-04 20:35 51.88813 0.25317 333 ft 2 kts 356°
2026-05-04 20:35 51.88799 0.25323 333 ft 2 kts 328°
2026-05-04 20:35 51.88788 0.25339 333 ft 2 kts 307°
2026-05-04 20:36 51.88779 0.25355 333 ft 0 kts 315°
2026-05-04 20:38 51.88793 0.25332 333 ft 8 kts 313°
2026-05-04 20:38 51.88836 0.25256 332 ft 9 kts 312°
2026-05-04 20:38 51.88886 0.25169 331 ft 11 kts 313°
2026-05-04 20:38 51.88940 0.25077 332 ft 10 kts 313°
2026-05-04 20:39 51.88967 0.24976 333 ft 10 kts 246°
2026-05-04 20:39 51.88915 0.24883 332 ft 12 kts 223°
2026-05-04 20:39 51.88849 0.24785 331 ft 13 kts 223°
2026-05-04 20:39 51.88775 0.24672 329 ft 15 kts 223°
2026-05-04 20:40 51.88698 0.24555 330 ft 15 kts 223°
2026-05-04 20:40 51.88621 0.24440 329 ft 15 kts 222°
2026-05-04 20:40 51.88541 0.24321 331 ft 15 kts 223°
2026-05-04 20:40 51.88464 0.24204 330 ft 15 kts 223°
2026-05-04 20:41 51.88389 0.24091 332 ft 14 kts 223°
2026-05-04 20:41 51.88312 0.23975 334 ft 19 kts 223°
2026-05-04 20:41 51.88208 0.23818 337 ft 20 kts 224°
2026-05-04 20:41 51.88111 0.23673 340 ft 17 kts 222°
2026-05-04 20:42 51.88019 0.23537 340 ft 17 kts 223°
2026-05-04 20:42 51.87929 0.23403 340 ft 17 kts 222°
2026-05-04 20:42 51.87840 0.23269 340 ft 17 kts 223°
2026-05-04 20:42 51.87761 0.23151 339 ft 11 kts 222°
2026-05-04 20:43 51.87732 0.23042 338 ft 11 kts 288°
2026-05-04 20:43 51.87772 0.22961 339 ft 0 kts 313°
2026-05-04 20:43 51.87773 0.22961 339 ft 0 kts 313°
2026-05-04 20:43 51.87773 0.22960 339 ft 0 kts 313°
2026-05-04 20:44 51.87774 0.22959 339 ft 0 kts 313°
2026-05-04 20:44 51.87804 0.22908 340 ft 10 kts 313°
2026-05-04 20:44 51.87846 0.22837 340 ft 8 kts 313°
2026-05-04 20:44 51.87864 0.22805 340 ft 0 kts 313°
2026-05-04 20:45 51.87875 0.22787 340 ft 5 kts 313°
2026-05-04 20:45 51.87917 0.22716 340 ft 9 kts 317°
2026-05-04 20:46 51.87980 0.22703 340 ft 9 kts 34°
2026-05-04 20:46 51.87989 0.22716 340 ft 0 kts 42°
2026-05-04 20:46 51.87998 0.22729 340 ft 11 kts 42°
2026-05-04 20:47 51.88245 0.23099 344 ft 85 kts 41°
2026-05-04 20:47 51.88857 0.24010 338 ft 150 kts 42°
2026-05-04 20:47 51.89672 0.25221 797 ft 161 kts 40°
2026-05-04 20:47 51.90489 0.26416 1418 ft 163 kts 42°
2026-05-04 20:48 51.91103 0.27940 2070 ft 167 kts 73°
2026-05-04 20:48 51.91069 0.29758 2801 ft 164 kts 103°
2026-05-04 20:48 51.90522 0.31395 3288 ft 174 kts 128°
2026-05-04 20:48 51.89522 0.32540 3782 ft 182 kts 156°
2026-05-04 20:49 51.88266 0.32816 4312 ft 185 kts 186°
2026-05-04 20:49 51.87056 0.32190 4644 ft 187 kts 204°
2026-05-04 20:49 51.85859 0.31259 4853 ft 196 kts 206°
2026-05-04 20:49 51.84582 0.30233 4971 ft 214 kts 206°
2026-05-04 20:50 51.83177 0.29128 4988 ft 239 kts 205°
2026-05-04 20:50 51.81576 0.27897 4936 ft 266 kts 205°
2026-05-04 20:50 51.79880 0.26611 4958 ft 273 kts 205°
2026-05-04 20:50 51.78159 0.25315 4966 ft 274 kts 204°
2026-05-04 20:51 51.76348 0.24464 4941 ft 273 kts 179°
2026-05-04 20:51 51.74538 0.25229 4973 ft 271 kts 151°
2026-05-04 20:51 51.72884 0.26699 4975 ft 271 kts 149°
2026-05-04 20:51 51.71236 0.28133 4974 ft 271 kts 150°
2026-05-04 20:52 51.69559 0.29530 4964 ft 271 kts 152°
2026-05-04 20:52 51.67870 0.30900 4969 ft 271 kts 152°
2026-05-04 20:52 51.66189 0.32231 4967 ft 272 kts 152°
2026-05-04 20:52 51.64469 0.33577 5236 ft 279 kts 153°
2026-05-04 20:53 51.62737 0.34931 5993 ft 279 kts 153°
2026-05-04 20:53 51.60997 0.36292 6739 ft 279 kts 153°
2026-05-04 20:53 51.59256 0.37651 7391 ft 281 kts 153°
2026-05-04 20:53 51.57509 0.39012 8047 ft 284 kts 153°
2026-05-04 20:54 51.55715 0.40409 8719 ft 286 kts 153°
2026-05-04 20:54 51.53933 0.41796 9331 ft 289 kts 154°
2026-05-04 20:54 51.52117 0.43209 9937 ft 292 kts 153°
2026-05-04 20:54 51.50294 0.44622 10522 ft 295 kts 153°
2026-05-04 20:55 51.48437 0.46047 11117 ft 298 kts 153°
2026-05-04 20:55 51.46579 0.47459 11676 ft 300 kts 153°
2026-05-04 20:55 51.44674 0.48903 12232 ft 303 kts 153°
2026-05-04 20:55 51.42777 0.50341 12795 ft 305 kts 153°
2026-05-04 20:56 51.40860 0.51795 13328 ft 308 kts 153°
2026-05-04 20:56 51.38932 0.53256 13879 ft 310 kts 153°
2026-05-04 20:56 51.36985 0.54732 14450 ft 311 kts 153°
2026-05-04 20:56 51.35030 0.56214 14996 ft 312 kts 153°
2026-05-04 20:57 51.33080 0.57688 15557 ft 313 kts 153°
2026-05-04 20:57 51.31121 0.59173 16075 ft 314 kts 152°
2026-05-04 20:57 51.29205 0.60815 16551 ft 316 kts 149°
2026-05-04 20:57 51.27275 0.62603 16785 ft 328 kts 148°
2026-05-04 20:58 51.25274 0.64466 17002 ft 339 kts 148°
2026-05-04 20:58 51.23215 0.66380 17211 ft 350 kts 149°
2026-05-04 20:58 51.21091 0.68352 17415 ft 361 kts 149°
2026-05-04 20:58 51.18893 0.70392 17617 ft 371 kts 149°
2026-05-04 20:59 51.16639 0.72479 17914 ft 378 kts 149°
2026-05-04 20:59 51.14358 0.74588 18356 ft 380 kts 149°